Dickinson, ND

1:19 PM MST on February 17, 2018 (GMT -0700)
Dickinson Municipal

Weather History for KDIK - April, 2013

Change the Weather History Date:

Thursday, April 25, 2013

  Actual Average Record
Temperature  
Mean Temperature 44 °F 46 °F  
Max Temperature 63 °F 60 °F 82 °F (1952)
Min Temperature 24 °F 33 °F 13 °F (1907)
Degree Days  
Heating Degree Days 21 19  
Month to date heating degree days 844 591  
Since 1 July heating degree days 8028 7971  
Cooling Degree Days 0 0  
Month to date cooling degree days 0 0  
Year to date cooling degree days 0 0  
Moisture  
Dew Point 26 °F    
Average Humidity 51    
Maximum Humidity 75    
Minimum Humidity 27    
Precipitation  
Precipitation T in 0.06 in 1.49 in (1899)
Month to date precipitation 0.59 1.14  
Year to date precipitation 1.02 2.46  
Sea Level Pressure  
Sea Level Pressure 29.88 in    
Wind  
Wind Speed 12 mph (SW)    
Max Wind Speed 29 mph    
Max Gust Speed 33 mph    
Visibility 10 miles    
Events      
T = Trace of Precipitation, MM = Missing Value Source: NWS Daily Summary

Daily Weather History Graph

Daily Weather History Graph

Search for Another Location

Airport or City:

Trip Planner

Search our weather history database for the weather conditions in past years. The results will help you decide how hot, cold, wet, or windy it might be!

Date:

Astronomy

Apr. 25, 2013 Rise Set
Actual Time 5:45 AM MDT 7:53 PM MDT
Civil Twilight 5:12 AM MDT 8:26 PM MDT
Nautical Twilight 4:31 AM MDT 9:07 PM MDT
Astronomical Twilight 3:46 AM MDT 9:53 PM MDT
Moon 8:11 PM MDT (4/25) 5:30 AM MDT (4/25)
Length of Visible Light 15h 14m
Length of Day
14h 08m
Full, 100% of the Moon is Illuminated
Apr 25
Full
Apr 25
Full
May 2
Last Quarter
May 9
New
May 17
First Quarter

Hourly Weather History & Observations

Time (MDT) Temp. Windchill Dew Point Humidity Pressure Visibility Wind Dir Wind Speed Gust Speed Precip Events Conditions
12:56 AM 24.1 °F 13.7 °F 18.0 °F 77% 30.06 in 10.0 mi South 10.4 mph - N/A   Clear
1:56 AM 27.0 °F 16.7 °F 18.0 °F 69% 30.03 in 10.0 mi South 11.5 mph - N/A   Clear
2:56 AM 27.0 °F 16.7 °F 19.0 °F 72% 30.00 in 10.0 mi South 11.5 mph - N/A   Scattered Clouds
3:56 AM 30.0 °F 21.1 °F 21.0 °F 69% 29.97 in 10.0 mi South 10.4 mph - N/A   Overcast
4:56 AM 30.0 °F 20.5 °F 21.0 °F 69% 29.96 in 10.0 mi South 11.5 mph - N/A   Overcast
5:56 AM 30.0 °F 20.5 °F 21.9 °F 72% 29.94 in 10.0 mi South 11.5 mph - N/A   Overcast
6:56 AM 32.0 °F 22.5 °F 23.0 °F 69% 29.94 in 10.0 mi South 12.7 mph - N/A   Mostly Cloudy
7:56 AM 37.0 °F 29.3 °F 25.0 °F 62% 29.92 in 10.0 mi South 11.5 mph - N/A   Overcast
8:56 AM 46.0 °F 38.8 °F 28.0 °F 50% 29.88 in 10.0 mi SSW 18.4 mph 24.2 mph N/A   Mostly Cloudy
9:56 AM 52.0 °F - 28.9 °F 41% 29.85 in 10.0 mi South 21.9 mph 27.6 mph N/A   Clear
10:56 AM 55.9 °F - 28.0 °F 34% 29.84 in 10.0 mi SSW 19.6 mph - N/A   Clear
11:56 AM 60.1 °F - 28.0 °F 30% 29.81 in 10.0 mi SW 15.0 mph 20.7 mph N/A   Clear
12:56 PM 61.0 °F - 27.0 °F 27% 29.79 in 10.0 mi WSW 12.7 mph 24.2 mph N/A   Mostly Cloudy
1:56 PM 61.0 °F - 28.0 °F 29% 29.78 in 10.0 mi West 12.7 mph - N/A   Mostly Cloudy
2:56 PM 61.0 °F - 26.1 °F 26% 29.79 in 10.0 mi WNW 15.0 mph 33.4 mph N/A   Overcast
3:56 PM 57.9 °F - 30.0 °F 35% 29.79 in 10.0 mi WNW 28.8 mph 33.4 mph 0.00 in   Overcast
4:56 PM 63.0 °F - 28.9 °F 28% 29.78 in 10.0 mi WNW 16.1 mph 20.7 mph N/A   Mostly Cloudy
5:56 PM 59.0 °F - 27.0 °F 29% 29.80 in 10.0 mi NNW 9.2 mph - N/A   Scattered Clouds
6:56 PM 60.1 °F - 27.0 °F 28% 29.81 in 10.0 mi NW 8.1 mph - N/A   Mostly Cloudy
7:56 PM 52.0 °F - 28.9 °F 41% 29.84 in 10.0 mi NW 6.9 mph - N/A   Mostly Cloudy
8:56 PM 48.0 °F - 28.0 °F 46% 29.86 in 10.0 mi WNW 4.6 mph - N/A   Clear
9:56 PM 46.0 °F 41.4 °F 28.9 °F 51% 29.89 in 10.0 mi North 9.2 mph - N/A   Clear
10:56 PM 45.0 °F 41.8 °F 30.0 °F 56% 29.89 in 10.0 mi NE 5.8 mph - N/A   Clear
11:56 PM 34.0 °F 28.8 °F 27.0 °F 75% 29.92 in 10.0 mi South 5.8 mph - N/A   Clear